Location: Prairie View Elementary School
(39.8322°N, 99.5698°W)
Time: 08:28:44
(UTC+00:00)

CSL-04 Rocket - Pass Details

Date: 08 December 2019
Orbit: 807 x 859 km, 99.0° (Epoch: 17 January)

Event Time Altitude Azimuth Distance (km) Brightness Sun altitude
Rises 01:39:35 0° 179° (S) 3,313 6.9 -27.3°
Reaches altitude 10° 01:41:58 10° 185° (S) 2,383 6.2 -27.8°
Maximum altitude 01:47:04 50° 260° (W) 1,025 4.4 -28.8°
Drops below altitude 10° 01:52:12 10° 335° (NNW) 2,399 6.2 -29.7°
Sets 01:54:37 0° 341° (NNW) 3,338 7.0 -30.2°
